Location: Newark
(50.8922°N, 11.6094°E)
Time: 01:00:07
(UTC+00:00)

N. Korean satellite - Pass Details

Date: 30 January 2020
Orbit: 456 x 505 km, 97.2° (Epoch: 25 February)

Event Time Altitude Azimuth Distance (km) Brightness Sun altitude
Rises 17:21:31 0° 215° (SW) 2,468 10.9 -12.8°
Reaches altitude 10° 17:24:43 10° 249° (WSW) 1,607 10.6 -13.3°
Maximum altitude 17:26:02 12° 272° (W) 1,505 10.3 -13.5°
Drops below altitude 10° 17:27:21 10° 295° (WNW) 1,618 10.1 -13.7°
Sets 17:30:37 0° 328° (NNW) 2,512 10.5 -14.2°
